Tracking 29892 objects as of 21-Nov-2024
HD Live streaming from Space Station
objects crossing your sky now

STARLINK-3805

Track STARLINK-3805 now!
10-day predictions
STARLINK-3805 is classified as:


NORAD ID: 52377
Int'l Code: 2022-045AY
Perigee: 545.8 km
Apogee: 548.0 km
Inclination: 53.2 °
Period: 95.4 minutes
Semi major axis: 6917 km
RCS: Unknown
Launch date: April 29, 2022
Source: United States (US)
Launch site: AIR FORCE EASTERN TEST RANGE (AFETR)
Your satellite tracking list
Your tracking list is empty




NASA's NSSDC Master Catalog

Two Line Element Set (TLE):
1 52377U 22045AY  24325.55448041  .00000305  00000-0  37239-4 0  9990
2 52377  53.2169 157.8153 0001592  96.1728 263.9445 15.08842874144337
Source of the keplerian elements: AFSPC